Meteo Giornale » Osservazioni meteo Stati Uniti (USA) » Washington
ore: 20:56 - Osservazioni Meteo Washington
Lat. 40° 8' N Lon. 80° 17' W Alt. 361 metri s.l.m.
24 °C
Sereno
Temp. 24 Ore
19 °C
29 °C
Nord
5.5 Km/h
Dew point 23 °C
Umidità 94 %
Visibilità 10 Km
Il sole sorge alle ore 06:48
Il sole tramonta alle ore 19:54
| Data e Ora | Cielo e Fenomeni | T °C | DP °C | Um. % | Pres. hPa | Vis. km | Vento km/h | |
|---|---|---|---|---|---|---|---|---|
| Oggi h: 20:56 | Sereno | 24 | 23 | 94 | 1019 | 10 | N 5.5 | |
| Oggi h: 19:56 | Molto Nuvoloso | 26 | 23 | 83 | 1019 | 10 | S 7.4 | |
| Oggi h: 18:56 | Poco Nuvoloso | 27 | 23 | 78 | 1019 | 10 | N 0 | |
| Oggi h: 17:56 | Sereno | 28 | 24 | 78 | 1019 | 10 | N 5.5 | |
| Oggi h: 16:56 | Coperto | 29 | 23 | 70 | 1020 | 10 | N 5.5 | |
| Oggi h: 15:56 | Coperto | 28 | 23 | 74 | 1020 | 10 | N 5.5 | |
| Oggi h: 14:56 | Coperto | 27 | 22 | 74 | 1021 | 10 | N 0 | |
| Oggi h: 13:56 | Coperto | 27 | 22 | 74 | 1021 | 10 | N 5.5 | |
| Oggi h: 12:56 | Coperto | 27 | 22 | 74 | 1021 | 10 | SO 7.4 | |
| Oggi h: 11:56 | Coperto | 26 | 22 | 78 | 1021 | 10 | S/SO 9.3 | |
| Oggi h: 10:56 | Coperto | 24 | 22 | 88 | 1021 | 10 | N 0 | |
| Oggi h: 09:56 | Molto Nuvoloso | 23 | 21 | 88 | 1021 | 10 | N 7.4 | |
| Oggi h: 08:56 | Nuvoloso | 21 | 20 | 94 | 1021 | 10 | N 0 | |
| Oggi h: 07:56 | Coperto | 20 | 19 | 93 | 1021 | 10 | N 0 | |
| Oggi h: 06:56 | Molto Nuvoloso | 19 | 19 | 100 | 1021 | 10 | N 0 | |
| Oggi h: 05:56 | Sereno | 19 | 18 | 93 | 1020 | 10 | N 0 | |
| Oggi h: 04:56 | Molto Nuvoloso | 19 | 18 | 93 | 1020 | 10 | N 0 | |
| Oggi h: 03:56 | Poco Nuvoloso | 19 | 19 | 100 | 1020 | 10 | N 0 | |
| Oggi h: 02:56 | Poco Nuvoloso | 20 | 19 | 93 | 1021 | 10 | N 0 | |
| Oggi h: 01:56 | Molto Nuvoloso | 21 | 19 | 88 | 1021 | 10 | N 0 | |
| Oggi h: 00:56 | Molto Nuvoloso | 21 | 19 | 88 | 1021 | 10 | N 0 | |
| Ieri h: 23:56 | Sereno | 22 | 19 | 83 | 1022 | 10 | N/NE 7.4 | |
| Ieri h: 22:56 | Coperto | 22 | 22 | 100 | 1022 | 10 | N 9.3 | |
| Ieri h: 21:56 | Coperto | 23 | 22 | 94 | 1022 | 10 | N 0 | |



